Время (UTC), дата Ветер
(°,м/с) 
Видим.   Явления Облачность Т
(°С)
Тd
(°С)
f(%) Тe
(°С)
Pmin
(гПа)
dP
(гПа)
Po
(мм)
O2
(г/м3)
Тmin Tmax R s Состояние
почвы
00 01.02.14 090 (В) 9-11{11}  1200 м  метель  4/0 средняя 
[Ac trans]
-22.3 -25 79 -32  1048.3  -0.4  740  326           
03 01.02.14 090 (В) 10  0900 м  сильная метель  8/3 300 м средняя 
[St|Ac trans]
-22 -24.7 79 -32  1047.9  -0.3  739  326  -23.9         
06 01.02.14 100 (В) 8{11}  0400 м  сильная метель  ясно 
-20.7 -23.3 80 -29  1048.1  0.6  740  324           
09 01.02.14 090 (В) 8-10{10}  4000 м  метель  ясно 
-17.5 -19.8 83 -26  1046.8  -0.5  739  320           
12 01.02.14 090 (В) 7{11}  4000 м  метель  ясно 
-15.6 -17.8 83 -23  1046.5  -0.1  740  317           
15 01.02.14 100 (В) 0500 м  сильная метель  3/0 средняя 
[Ac trans]
-17.3 -19.6 82 -25  1046.9  740  320    -15.6       
18 01.02.14 090 (В) 9-11{12}  1100 м  метель  3/3 200 м 
[St]
-16.8 -19 83 -25  1046.7  0.1  739  319           
21 01.02.14 110 (В) 10-12{12}  1000 м  метель  4/4 300 м 
[St]
-13.7 -15.5 86 -22  1045.2  -0.7  739  315           
00 02.02.14 100 (В) 10-12{15}  1200 м  метель  5/5 200 м 
[St]
-13.3 -15.1 86 -21  1044.6  -0.5  739  314           
03 02.02.14 100 (В) 10 км  позёмок  8/5 600 м средняя 
[Sc|Ac trans]
-13.8 -15.7 85 -22  1044.5  -0.5  738  315  -18         
06 02.02.14 070 (В) 6{11}  0600 м  ливневой снег  8/6 570 м кучево-дожд., средняя 
[Cb cap|Ac trans]
-15 -17 85 -21  1045.9  1.1  739  317           
09 02.02.14 110 (В) 10-13  1200 м  метель  3/3 210 м 
[St]
-12.9 -14.7 86 -21  1044.1  -1.3  738  313           
12 02.02.14 100 (В) 10-14  1500 м  метель{ливн. осадки}  3/3 210 м 
[St]
-12.1 -13.8 87 -20  1042.9  -0.9  738  312           
15 02.02.14 100 (В) 1200 м  метель  6/6 200 м 
[St]
-14 -15.9 85 -21  1043.1  -0.3  737  314    -12  0.0     
18 02.02.14 100 (В) 10-13  1500 м  метель{ливн. осадки}  10/8 500 м кучево-дожд., средняя 
[Cb cap|Ac As]
-12.2 -13.9 87 -20  1042.2  -0.4  737  312           
21 02.02.14 110 (В) 11-14{14}  1100 м  метель  10/8 500 м кучево-дожд., средняя 
[Cb cap|Ac und]
-11 -12.6 88 -19  1040.6  -1.3  736  310           
00 03.02.14 110 (В) 9-11  3000 м  метель  10/6 500 м кучево-дожд., средняя 
[Cb cap|Ac und]
-11.3 -12.9 88 -18  1040  -0.6  736  310           
03 03.02.14 120 (ЮВ) 2500 м  снег  10/10 300 м 
[Ns]
-11.3 -12.9 88 -18  1039  -0.9  735  310  -14    0.7     
06 03.02.14 120 (ЮВ) 9-11{16}  2000 м  метель{снег}  6/3 300 м средняя 
[Sc|Ac trans]
-11.7 -13.4 87 -19  1038.6  -0.5  735  310           
09 03.02.14 120 (ЮВ) 10-13  2000 м  метель  8/5 360 м средняя 
[Sc|Ac trans]
-10.1 -11.7 88 -17  1037.7  -0.5  734  308           
12 03.02.14 100 (В) 7{16}  4000 м  метель  9/6 400 м средняя 
[Sc|Ac trans]
-12 -13.7 87 -18  1037.6  -0.5  734  310           
15 03.02.14 110 (В) 10 км  позёмок  9/8 300 м средняя 
[St|Ac trans]
-14.2 -16.1 85 -22  1037.7  -0.4  734  313    -9.7  0.0     
18 03.02.14 110 (В) 5{10}  10 км  позёмок  1/1 300 м 
[Sc]
-15 -17 85 -21  1037  -0.8  733  314           
21 03.02.14 110 (В) 20000 м  позёмок  ясно 
-14.3 -16.2 85 -19  1035.5  -1.3  732  313           
00 04.02.14 110 (В) 10 км    3/3 300 м 
[Sc]
-14.1 -16 85 -20  1034.6  -0.7  731  312           
03 04.02.14 130 (ЮВ) 10 км    1/0 средняя 
[Ac trans]
-13 -14.8 86 -19  1033.4  -1  731  310  -15.2    0.0  79  очень
неравномерный
сухой снег
(сугробы, заносы) 
06 04.02.14 150 (ЮВ) 10 км    6/0 средняя, верхняя 
[Ac trans|Ci fib]
-11.4 -13 88 -17  1032.6  -0.3  730  308           
09 04.02.14 150 (ЮВ) 20000 м    4/0 верхняя 
[Ci fib]
-9.1 -10.6 89 -14  1030.1  -1.9  729  305           
12 04.02.14 140 (ЮВ) 20000 м    ясно 
-7.3 -9.7 83 -12  1029.1  -0.6  729  303           
15 04.02.14 020 (С) 20000 м    4/0 средняя, верхняя 
[Ac trans|Ci fib]
-8.8 -11.3 82 -9  1029.3  0.1  728  304    -6.7       
18 04.02.14 300 (СЗ) 20000 м    3/0 средняя 
[Ac trans]
-5.4 -10.3 68 -8  1027.6  -0.9  728  300           
21 04.02.14 300 (СЗ) 20000 м    5/0 средняя 
[Ac trans]
-5.8 -12.9 57 -10  1026.9  -0.8  727  300           
00 05.02.14 280 (З) 20000 м    3/0 средняя 
[Ac trans]
-5.6 -15.9 44 -10  1026  -0.8  727  300           
03 05.02.14 280 (З) 20000 м    4/0 средняя 
[Ac trans]
-7.6 -11.8 72 -13  1026.6  0.2  727  302  -9.3      79  очень
неравномерный
сухой снег
(сугробы, заносы) 
06 05.02.14 280 (З) 20000 м    3/0 средняя 
[Ac trans]
-5.1 -18.7 33 -9  1026.6  0.5  727  300           
09 05.02.14 270 (З) 20000 м    ясно 
-2.1 -19.4 25 -6  1025.1  -0.8  727  296           
12 05.02.14 290 (З) 5{11}  20000 м    3/0 средняя 
[Ac trans]
-1.8 -15.5 34 -5  1024.3  -0.7  726  296           
15 05.02.14 270 (З) 3{10}  20000 м    3/0 средняя 
[Ac trans]
-5.1 -19.2 32 -7  1025.5  0.5  726  300    -1.5       
18 05.02.14 310 (СЗ) 20000 м    ясно 
-7.2 -15.3 52 -11  1026.3  0.3  727  302           
21 05.02.14 тихо ()   20000 м    ясно 
-9.1 -17.2 52 -9  1026.5  -0.2  726  304           
00 06.02.14 130 (ЮВ) 20000 м    ясно 
-11.5 -16 69 -11  1026.5  -0.5  726  307           
03 06.02.14 180 (Ю) 20000 м    3/3 200 м 
[St]
-15.8 -17.8 84 -18  1028.1  0.6  726  312  -15.9      78  очень
неравномерный
сухой снег
(сугробы, заносы) 
06 06.02.14 180 (Ю) 20000 м  в посл. час туман  ясно 
-12.9 -14.9 85 -15  1028  0.5  727  309  -16.6         
09 06.02.14 110 (В) 20000 м    ясно 
-8.9 -12.5 75 -11  1026.4  -0.6  726  304           
12 06.02.14 110 (В) 20000 м    ясно 
-7.9 -10.6 81 -11  1025.5  -0.6  726  302           
15 06.02.14 110 (В) 20000 м    ясно 
-10 -11.3 90 -13  1025.9  -0.6  726  305    -7.2       
18 06.02.14 120 (ЮВ) 0200 м  переохл. туман  ясно 
-11.6 -13 89 -14  1026.6  0.3  726  307           
21 06.02.14 110 (В) 20000 м  {туман}  ясно 
-13.5 -15.4 86 -17  1026.1  -0.9  725  309           
00 07.02.14 120 (ЮВ) 20000 м  {туман}  ясно 
-13.4 -15.3 85 -17  1025.7  -0.4  725  309           
03 07.02.14 140 (ЮВ) 20000 м    ясно 
-9.1 -11.7 81 -12  1024.1  -0.5  725  303  -13.8      78  очень
неравномерный
сухой снег
(сугробы, заносы) 
06 07.02.14 140 (ЮВ) 20000 м    4/0 верхняя 
[Ci fib]
-7.4 -12.8 65 -9  1024.3  0.5  725  301           
09 07.02.14 100 (В) 20000 м    3/0 верхняя 
[Ci fib]
-5.5 -10.6 67 -5  1023.7  -0.1  725  299           
12 07.02.14 180 (Ю) 20000 м    3/0 верхняя 
[Ci fib]
-2.7 -8.5 64 -4  1022.8  -0.3  725  296           
15 07.02.14 170 (Ю) 20000 м    3/0 верхняя 
[Ci fib]
-6.5 -10.9 71 -8  1023.7  0.1  725  300    -1.2       
18 07.02.14 120 (ЮВ) 20000 м    ясно 
-5.8 -12.3 60 -9  1023.6  725  299           
21 07.02.14 200 (Ю) 20000 м    ясно 
-9.6 -12.7 78 -9  1024  -0.4  725  304           
00 08.02.14 230 (ЮЗ) 20000 м    ясно 
-9 -12.4 76 -9  1024  0.1  725  303           
03 08.02.14 230 (ЮЗ) 20000 м    ясно 
-6.3 -10 75 -6  1023.6  0.2  725  300  -11.3      76  очень
неравномерный
сухой снег
(сугробы, заносы) 
06 08.02.14 280 (З) 20000 м    6/0 средняя, верхняя 
[Ac trans|Ci fib]
-2.1 -9.1 59 -4  1024  1.3  726  296           
09 08.02.14 310 (СЗ) 20000 м    8/0 средняя, верхняя 
[Ac trans|Ci fib]
+3.3 -2.3 67 +2  1023.1  0.2  726  289           
12 08.02.14 040 (СВ) 20000 м    3/1 600 м средняя 
[Sc|Ac trans]
+2.8 -3.3 64 +2  1023.3  0.1  726  290           
15 08.02.14 140 (ЮВ) 20000 м    5/0 средняя 
[Ac trans]
-1.2 -5.1 75 -2  1024.5  0.3  726  294    +3.3       
18 08.02.14 170 (Ю) 20000 м    3/0 средняя 
[Ac trans]
-3.5 -5.4 87 -6  1024.9  0.1  726  297           
21 08.02.14 180 (Ю) 20000 м    3/0 средняя 
[Ac trans]
-3.8 -5.2 90 -5  1024  -1  725  297           
00 09.02.14 160 (Ю) 20000 м    6/0 средняя 
[Ac trans]
-4.1 -5.1 93 -6  1023.5  -0.5  725  297           
03 09.02.14 140 (ЮВ) 20000 м    9/0 средняя 
[Ac trans]
-1.4 -4.7 78 -4  1022.4  -0.5  725  294  -5.5      73  неравномерный
мокрый или
старый снег
100% 
06 09.02.14 170 (Ю) 20000 м    8/3 1000 м средняя 
[Sc|Ac trans]
+0.4 -3.3 76 -1  1022  725  292           
09 09.02.14 140 (ЮВ) 20000 м    8/0 средняя 
[Ac trans]
+3.9 -4.1 56 +2  1020.1  -1.1  724  288           
12 09.02.14 140 (ЮВ) 20000 м    10/0 средняя 
[As trans]
+2.8 -3.5 63 +2  1019.2  -1  723  289           
15 09.02.14 140 (ЮВ) 20000 м    10/0 средняя 
[Ac und]
+2.5 -3.5 65 +1  1019  -0.3  723  289    +3.9       
18 09.02.14 140 (ЮВ) 20000 м    8/0 средняя 
[Ac trans]
+2 -5.3 58 1018.8  -0.3  723  290           
21 09.02.14 140 (ЮВ) 20000 м    8/0 средняя 
[Ac trans]
+2.7 -6.9 49 1018.1  -0.6  722  289           
00 10.02.14 140 (ЮВ) 20000 м    9/0 средняя 
[Ac trans]
+1.6 -5.1 61 +2  1018.1  -0.2  722  290           
03 10.02.14 150 (ЮВ) 20000 м    9/0 средняя 
[Ac trans]
+0.3 -4.5 70 -1  1018.1  -0.2  722  291  +0.3      71  неравномерный
мокрый или
старый снег
100% 
06 10.02.14 340 (С) 20000 м    9/4 1000 м средняя 
[Sc|Ac trans]
+1.1 -3.7 70 +2  1018.2  0.2  722  290  +0.1         
09 10.02.14 150 (ЮВ) 20000 м    8/0 средняя 
[Ac trans]
+2.9 -3.9 61 +4  1017.5  -0.2  722  288           
12 10.02.14 120 (ЮВ) 20000 м    8/0 средняя 
[Ac trans]
+1.1 -2.9 75 1017.3  -0.6  722  290           
15 10.02.14 100 (В) 20000 м    10/0 средняя 
[Ac und]
+0.9 -2.8 76 -1  1017.8  0.5  722  290    +3.7       
18 10.02.14 070 (В) 20000 м    3/0 средняя 
[Ac trans]
-1.9 -3.4 89 -4  1019  0.6  722  293           
21 10.02.14 140 (ЮВ) 20000 м    3/0 средняя 
[Ac trans]
-3 -5.7 82 -5  1019.2  0.1  722  295           
00 11.02.14 150 (ЮВ) 20000 м    3/0 средняя 
[Ac trans]
-1.4 -5.4 74 -5  1019  0.2  722  293           
03 11.02.14 140 (ЮВ) 20000 м    6/0 средняя 
[Ac As]
-1.2 -4.7 77 -3  1020  723  293  -3.5      66  неравномерный
мокрый или
старый снег
100% 
06 11.02.14 200 (Ю) 20000 м    3/0 средняя 
[Ac trans]
-0.1 -4.6 72 -1  1021.8  1.8  725  292  -3.7         
09 11.02.14 320 (СЗ) 20000 м    3/0 средняя 
[Ac trans]
+7.6 +1.9 67 +6  1021.4  1.1  725  284           
12 11.02.14 010 (С) 20000 м    ясно 
+7.5 +2.8 72 +7  1021.8  0.4  726  284           
15 11.02.14 190 (Ю) 20000 м    ясно 
+2.8 -0.7 78 +4  1024.1  1.2  727  290    +8.2       
18 11.02.14 280 (З) 20000 м    3/0 средняя 
[Ac trans]
+2.8 +1.5 91 +4  1025.1  1.1  727  290           
21 11.02.14 140 (ЮВ) 0600 м  туман поземный  3/0 средняя 
[Ac trans]
+2.1 +1.4 95 +1  1024.9  -0.4  727  290           
00 12.02.14 190 (Ю) 1600 м  туман поземный  4/0 средняя 
[Ac trans]
+2 +1.4 96 +3  1025  0.1  727  291           
03 12.02.14 160 (Ю) 10 км  туман поземный  3/0 средняя 
[Ac trans]
+1.3 +0.7 96 +1  1025.2  0.1  727  291  -0.7         
06 12.02.14 180 (Ю) 20000 м    9/0 средняя 
[Ac trans]
+3.3 +2.8 97 +4  1024.9  0.1  727  289           
09 12.02.14 150 (ЮВ) 20000 м    8/0 верхняя 
[Ci fib]
+8.5 +1 59 +10  1023.2  -0.7  727  284           
12 12.02.14 110 (В) 20000 м    5/0 верхняя 
[Ci fib]
+9.8 -2.4 42 +11  1021.8  -1.1  726  283           
15 12.02.14 140 (ЮВ) 20000 м    4/0 верхняя 
[Ci fib]
+2.7 +0.7 87 +1  1023.6  0.4  726  290    +10       
18 12.02.14 150 (ЮВ) 20000 м    4/0 верхняя 
[Ci fib]
+2.4 -0.4 82 +1  1023.4  -0.3  726  290           
21 12.02.14 150 (ЮВ) 20000 м    3/0 верхняя 
[Ci fib]
+1.9 -2.8 71 -1  1021.9  -1.5  725  290           
00 13.02.14 160 (Ю) 20000 м    3/0 верхняя 
[Ci fib]
+1.9 -2.9 70 1020.6  -1.5  724  290           
03 13.02.14 140 (ЮВ) 20000 м    3/0 верхняя 
[Ci fib]
+2.1 -2.6 71 1019.9  -0.6  724  290  -0.7      64  неравномерный
мокрый или
старый снег
100% 
06 13.02.14 130 (ЮВ) 20000 м    5/0 верхняя 
[Ci fib]
+2.7 -2.1 71 +1  1020  0.1  724  289           
09 13.02.14 130 (ЮВ) 20000 м    8/0 верхняя 
[Ci fib]
+4.1 -1.2 68 +2  1018.7  -0.9  723  287           
12 13.02.14 120 (ЮВ) 20000 м    6/0 верхняя 
[Ci fib]
+5.1 -0.7 66 +3  1016.9  -0.9  722  286           
15 13.02.14 080 (В) 20000 м    8/0 верхняя 
[Ci fib]
-0.1 -1.7 89 -1  1018.4  0.4  722  291    +6.1       
18 13.02.14 160 (Ю) 20000 м    8/0 верхняя 
[Ci fib]
-2.2 -3.1 93 -5  1019  0.1  722  294           
21 13.02.14 150 (ЮВ) 7-10{10}  0100 м  туман [диам. гололёда 1 мм]  ?/?  
-0.9 -1.4 96 -5  1017.3  -1.3  721  292           
00 14.02.14 120 (ЮВ) 4{10}  0900 м  туман  5/5 210 м 
[St]
-1.8 -2.3 96 -5  1017  -0.4  721  293           
03 14.02.14 110 (В) 4000 м  дымка{туман}  6/0 верхняя 
[Ci fib]
-3 -3.6 96 -4  1017.2  -0.1  721  294  -3         
06 14.02.14 100 (В) 20000 м  {туман}  4/0 верхняя 
[Ci fib]
-0.5 -1.6 92 -1  1016.6  0.1  721  291  -3.1         
09 14.02.14 120 (ЮВ) 20000 м    8/0 верхняя 
[Ci fib]
+4.5 -0.6 69 +5  1015  -0.5  720  286           
12 14.02.14 150 (ЮВ) 20000 м    8/0 верхняя 
[Ci fib]
+6.1 +0.5 67 +7  1014  -0.6  720  284           
15 14.02.14 160 (Ю) 20000 м    9/0 средняя, верхняя 
[Ac trans|Ci fib]
+1.4 -0.8 85 +1  1015  720  289    +8       
18 14.02.14 170 (Ю) 20000 м    3/0 верхняя 
[Ci fib]
+3.3 -1.7 70 +1  1014.2  -0.4  720  287           
21 14.02.14 190 (Ю) 20000 м    4/0 верхняя 
[Ci fib]
+4 -4.7 53 +3  1013.5  -0.6  719  286           
00 15.02.14 220 (ЮЗ) 20000 м    9/0 верхняя 
[Ci fib]
+6 -5.5 43 +6  1013.2  719  284           
03 15.02.14 190 (Ю) 20000 м    9/0 верхняя 
[Ci fib]
+6.6 -5.8 41 +6  1012.9  -0.1  719  283  +0      49  мокрый или
старый снег
50-90% 
06 15.02.14 140 (ЮВ) 20000 м    8/0 средняя, верхняя 
[Ac trans|Ci]
+10.2 -3.2 39 +11  1012.4  0.2  719  280           
09 15.02.14 080 (В) 20000 м    8/0 верхняя 
[Ci sp]
+10.7 -0.9 45 +12  1012.5  0.2  719  279           
12 15.02.14 090 (В) 20000 м    4/0 верхняя 
[Ci sp]
+10.1 -2.6 41 +10  1012.2  -0.4  719  280           
15 15.02.14 120 (ЮВ) 20000 м    3/0 средняя, верхняя 
[Ac trans|Ci sp]
+6.5 -4.6 45 +6  1013.6  0.6  720  284    +12.9       
18 15.02.14 180 (Ю) 20000 м    ясно 
-0.6 -2.6 86 -1  1015.3  0.3  720  291           
21 15.02.14 190 (Ю) 20000 м    ясно 
-0.6 -2.7 86 -1  1015.2  0.1  720  291           
00 16.02.14 140 (ЮВ) 10 км    ясно 
-0.8 -2.1 91 1015.6  0.3  720  291           
03 16.02.14 090 (В) 0800 м  туман  3/3 200 м 
[St]
-4.2 -4.8 96 -5  1017.1  0.8  721  295  -4.2         
06 16.02.14 140 (ЮВ) 4000 м  дымка{туман}  6/0 верхняя 
[Ci fib]
-0.2 -0.9 95 -1  1017.4  721  291  -5         
09 16.02.14 тихо ()   20000 м    8/0 средняя 
[Ac trans]
+4.5 -0.8 68 +5  1016.8  0.4  722  286           
12 16.02.14 010 (С) 20000 м    6/0 средняя 
[Ac trans]
+4.7 +0.2 73 +4  1017.4  0.6  722  286           
15 16.02.14 290 (З) 0400 м  туман  4/4 200 м 
[St]
+1.2 +0.3 94 +1  1019.6  1.4  723  290    +4.8       
18 16.02.14 170 (Ю) 1200 м  дымка{туман}  4/4 210 м 
[St]
-0.5 -1 96 1021  724  292           
21 16.02.14 270 (З) 6{10}  3000 м  дымка{туман}  4/4 200 м 
[St]
+2.2 +1.5 95 -1  1020.2  -0.2  724  289           
00 17.02.14 290 (З) 3000 м  дымка  4/4 210 м 
[St]
+2.2 +1.5 95 +1  1020.5  0.3  724  289           
03 17.02.14 270 (З) 2000 м  дымка  10/10 100 м 
[St]
+2.4 +1.7 95 +1  1020.8  0.3  724  289  -0.5         
06 17.02.14 270 (З) 3000 м  слаб. морось  10/10 120 м 
[St]
+3.1 +2.4 95 +1  1021  0.3  724  288           
09 17.02.14 270 (З) 4{11}  4000 м  дымка{морось}  10/10 210 м 
[St]
+3.9 +2.6 91 +2  1020.6  -0.2  724  287           
12 17.02.14 260 (З) 4{10}  20000 м  {морось}  10/3 300 м средняя 
[St|Ac und]
+6 +2.7 79 +4  1019.3  -0.8  724  285           
15 17.02.14 230 (ЮЗ) 20000 м    10/0 средняя 
[Ac und]
+4.4 +2.1 85 +3  1019.7  0.1  724  287    +6.1  0.0     
18 17.02.14 220 (ЮЗ) 20000 м    10/0 средняя 
[Ac und]
+4.4 +1.8 83 +5  1019.4  -0.3  724  287           
21 17.02.14 250 (З) 20000 м    4/0 средняя 
[Ac trans]
+4.2 +0.3 76 +2  1018  -1.4  722  287           
00 18.02.14 260 (З) 20000 м    6/0 средняя 
[Ac trans]
+5.3 -1 64 +4  1016.8  -1  722  285           
03 18.02.14 260 (З) 20000 м  слаб. ливневой дождь  10/5 1000 м кучево-дожд., средняя 
[Cb cap|Ac und]
+5.5 +0.8 72 +4  1016.2  -0.5  721  285  +3    0.0     
06 18.02.14 260 (З) 20000 м  слаб. ливневой дождь  10/6 1080 м кучево-дожд., средняя 
[Cb cap|Ac und]
+4 +1.6 84 +5  1017.6  722  286           
09 18.02.14 280 (З) 20000 м  слаб. ливневой дождь  10/8 330 м кучево-дожд., средняя 
[Cb cap|Ac und]
+4.8 +3 88 +3  1017.2  -0.2  722  285           
12 18.02.14 290 (З) 5{10}  4000 м  ливневой дождь  10/8 240 м кучево-дожд., средняя 
[Cb cap|Ac und]
+4.6 +3.4 92 +2  1016.7  -0.2  722  285           
15 18.02.14 300 (СЗ) 4000 м  ливневой дождь{туман}  10/8 200 м кучево-дожд., средняя 
[Cb cap|Ac und]
+2.4 +1.8 96 +1  1018.5  1.3  723  288    +5.9     
18 18.02.14 270 (З) 10 км  слаб. ливневой дождь{туман}  10/8 180 м кучево-дожд., средняя 
[Cb cap|Ac und]
+1.7 +0.6 92 1020.5  1.7  724  290           
21 18.02.14 280 (З) 7-10{11}  20000 м  {ливн. осадки}  10/8 300 м кучево-дожд., средняя 
[Cb calv|Ac und]
+1.3 -0.7 86 -2  1023  2.2  726  291           
00 19.02.14 270 (З) 7-10  4000 м  дымка{ливн. осадки}  10/8 150 м средняя 
[St|Ac und]
+0.8 -0.2 93 -3  1024.6  1.5  727  292           
03 19.02.14 260 (З) 10 км    8/5 300 м средняя 
[St|Ac trans]
-0.6 -2 90 -4  1025.8  0.8  727  294  -0.6    32  мокрый или
старый снег
10-40% 
06 19.02.14 250 (З) 20000 м    3/1 600 м средняя 
[Sc|Ac trans]
+1.1 -2.5 77 -2  1026.2  0.6  728  292  -1.3         
09 19.02.14 250 (З) 9-12{13}  20000 м    9/3 600 м средняя 
[Sc|Ac trans]
+3.7 -2.4 64 1025.1  -0.5  727  289           
12 19.02.14 280 (З) 7-10{12}  20000 м    8/0 средняя 
[Ac trans]
+4.8 -1.9 62 +2  1024  -0.9  727  288           
15 19.02.14 280 (З) 5{11}  20000 м    4/0 средняя, верхняя 
[Ac trans|Ci fib]
+2.8 -1.4 74 1023.8  -0.5  726  290    +5       
18 19.02.14 250 (З) 20000 м    10/3 600 м средняя 
[Sc|Ac und]
+0.1 -1.7 88 -1  1023.5  -0.8  726  292           
21 19.02.14 160 (Ю) 10 км    10/3 600 м средняя 
[Sc|Ac und]
+0.5 -1.1 89 1021.6  -1.7  725  291           
00 20.02.14 190 (Ю) 20000 м    10/3 1000 м средняя 
[Sc|Ac und]
+1.1 -1.9 80 1019.9  -1.5  723  290           
03 20.02.14 170 (Ю) 20000 м    10/5 1500 м средняя 
[Sc|Ac und]
+1.6 -2.2 76 +1  1018.1  -1.7  722  289  -0.7      32  мокрый или
старый снег
10-40% 
06 20.02.14 180 (Ю) 20000 м    10/3 1000 м средняя 
[Sc|Ac trans]
+4.6 -2.5 60 +3  1015.7  -1.7  721  286           
09 20.02.14 190 (Ю) 20000 м    6/0 средняя 
[Ac trans]
+12.3 -3 34 +12  1011.3  -2.7  719  277           
12 20.02.14 280 (З) 6-10{15}  20000 м    10/0 средняя 
[Ac und]
+12.6 +2 48 +12  1008.9  -2.1  717  276           
15 20.02.14 270 (З) 8-12  20000 м    10/3 1000 м средняя 
[Sc|Ac und]
+11.6 +2.5 54 +10  1009.3  0.2  717  277    +15       
18 20.02.14 290 (З) 8-12{15}  20000 м    10/3 1000 м средняя 
[Sc|Ac und]
+8.3 +3.9 74 +6  1010.8  0.8  718  280           
21 20.02.14 280 (З) 9-16{16}  4000 м  дымка  10/6 180 м кучево-дожд., средняя 
[Cb calv|Ac und]
+6.4 +5.4 93 +3  1012.8  1.5  719  282           
00 21.02.14 300 (СЗ) 5{16}  2000 м  слаб. ливневой дождь{туман}  10/8 100 м кучево-дожд., средняя 
[Cb cap|Ac und]
+4.8 +4.3 97 +3  1013.1  719  284           
03 21.02.14 320 (СЗ) 3000 м    10/10 100 м 
+2.1 +1.2 94 -1  1014.8  1.1  720  288  +2.1    19  мокрый или
старый снег
10-40% 
06 21.02.14 280 (З) 2000 м  слаб. ливневой снег  10/8 120 м кучево-дожд., средняя 
[Cb cap|Ac und]
+0.3 -0.3 96 -1  1016.3  721  290  +0.2         
09 21.02.14 280 (З) 3000 м  слаб. ливневой снег  10/8 210 м кучево-дожд., средняя 
[Cb cap|Ac und]
+0.2 -0.4 96 -3  1017.4  722  290           
12 21.02.14 290 (З) 8-12{13}  20000 м  {ливн. осадки}  5/5 500 м кучево-дожд. 
[Cb calv]
+2.4 +0 84 -1  1018.3  1.3  722  288           
15 21.02.14 310 (СЗ) 20000 м    8/8 660 м кучево-дожд. 
[Cb calv]
+2.2 -0.3 84 1021.8  3.3  725  290    +3.4     
18 21.02.14 320 (СЗ) 20000 м    10/6 500 м кучево-дожд., средняя 
[Cb calv|Ac und]
+1.1 -1.1 85 +2  1023.4  1.3  726  291           
21 21.02.14 050 (СВ) 20000 м    10/3 600 м средняя 
[Sc diur, vesp|Ac und]
-0.1 -1.5 90 +1  1024.2  0.5  726  293           
00 22.02.14 050 (СВ) 10 км    10/6 270 м средняя 
[St|Ac und]
-0.8 -1.6 94 -2  1024.3  0.1  726  294           
03 22.02.14 080 (В) 2000 м  дымка{туман}  10/8 100 м средняя 
[St|Ac und]
-1.5 -2 96 -4  1024.6  0.2  726  294  -1.6         
06 22.02.14 090 (В) 10 км  {туман}  10/6 500 м средняя 
[Sc|Ac und]
-1.4 -4.1 82 -5  1025.6  0.9  727  295  -1.9         
09 22.02.14 100 (В) 8-10{11}  20000 м    6/3 300 м средняя 
[Sc|Ac trans]
+1.2 -2.7 75 -3  1025  727  292           
12 22.02.14 100 (В) 8-11{12}  20000 м    10/4 300 м средняя 
[Sc|Ac und]
+0.8 -3.3 74 -3  1024.1  -0.9  726  292           
15 22.02.14 100 (В) 10  20000 м    10/6 750 м средняя 
[Sc|Ac und]
-0.2 -4 76 -5  1024.7  0.4  727  293    +1.8       
18 22.02.14 100 (В) 10-12{14}  20000 м    10/5 600 м средняя 
[Sc|Ac und]
-1.3 -4.5 79 -6  1025.2  0.3  727  295           
21 22.02.14 100 (В) 9-13{15}  20000 м    6/3 600 м средняя 
[Sc|Ac trans]
-2 -5.3 78 -7  1024.9  -0.4  726  295           
00 23.02.14 110 (В) 11-15{15}  20000 м    4/0 средняя 
[Ac trans]
-3.1 -5.2 85 -9  1025.1  0.1  726  297           
03 23.02.14 110 (В) 12  20000 м    10/6 300 м средняя 
[St|Ac und]
-3.2 -5.3 85 -9  1026.1  727  297  -3.5      18  мокрый или
старый снег
10-40% 
06 23.02.14 110 (В) 12-19{20}  20000 м    10/8 360 м средняя 
[St|Ac und]
-2.4 -4.9 83 -8  1027.2  1.2  728  296           
09 23.02.14 120 (ЮВ) 11-15{19}  20000 м    10/8 360 м средняя 
[St|Ac und]
-1.2 -3.9 82 -7  1027.3  0.3  728  295           
12 23.02.14 100 (В) 8-11{12}  20000 м    10/4 300 м средняя 
[Sc|Ac und]
+0.8 -3.3 74 -3  1024.1  -0.9  726  292           
15 23.02.14 120 (ЮВ) 20000 м    10/8 420 м средняя 
[Sc|Ac und]
-0.1 -2.7 83 -5  1026.2  0.1  728  294    +0.4       
18 23.02.14 120 (ЮВ) 11-14{15}  20000 м    10/10 180 м 
[St]
-0.6 -2.1 90 -6  1026.2  728  294           
21 23.02.14 120 (ЮВ) 10-14{15}  20000 м    10/10 120 м 
[St]
-1.4 -2.3 94 -7  1025.8  -0.5  727  295           
00 24.02.14 120 (ЮВ) 9-12{14}  20000 м    10/10 120 м 
[St]
-1.7 -2.6 94 -7  1025.9  727  295           
03 24.02.14 110 (В) 20000 м    10/10 100 м 
[St]
-1.6 -2.3 95 -6  1026  -0.1  727  295  -1.8      17  мокрый или
старый снег
10-40% 
06 24.02.14 110 (В) 8-11{11}  10 км    10/10 120 м 
[St]
-1.5 -2.3 94 -6  1026.6  0.6  728  295           
09 24.02.14 120 (ЮВ) 9-12{12}  20000 м    10/8 270 м средняя 
[St|Ac und]
+0.7 -2.3 80 -4  1026  0.1  728  293           
12 24.02.14 110 (В) 9-12{12}  20000 м    10/8 300 м средняя 
[St|Ac und]
+1.3 -1.7 80 -3  1025.4  -0.5  727  292           
15 24.02.14 090 (В) 8-10  0400 м  туман  ?/?  
-0.3 -1 95 -5  1026.3  0.6  728  294    +1.5       
18 24.02.14 100 (В) 5{11}  0200 м  туман [диам. гололёда 2 мм]  ?/?  
-0.2 -0.7 96 -3  1026.1  0.1  728  293           
21 24.02.14 090 (В) 7{10}  0100 м  туман [диам. гололёда 4 мм]  ?/?  
-0.9 -1.3 97 -5  1025.6  -0.6  727  294           
00 25.02.14 110 (В) 6{11}  0100 м  туман [диам. гололёда 8 мм]  ?/?  
-0.7 -1.2 96 -4  1025.5  0.1  727  294           
03 25.02.14 100 (В) 0100 м  туман  ?/?  
-1 -1.5 96 -5  1025.6  0.1  727  294  -1      37  мокрый или
старый снег
10-40% 
06 25.02.14 110 (В) 8-11{11}  0300 м  туман  ?/?  
-0.6 -1.1 96 -5  1025.8  0.2  727  294  -1         
09 25.02.14 110 (В) 10-13  10 км  {туман}  10/8 180 м средняя 
[St|Ac und]
+0.5 +0 97 -4  1024.8  -0.7  727  292           
12 25.02.14 100 (В) 9-14{15}  0500 м  туман  ?/?  
+0.9 +0.4 96 -3  1024.2  -0.5  726  292           
15 25.02.14 090 (В) 11-14  0100 м  туман  ?/?  
-0.2 -0.6 97 -5  1024.5  0.1  726  293    +0.9       
18 25.02.14 110 (В) 5{15}  0100 м  туман [диам. гололёда 2 мм]  ?/?  
-0.4 -0.9 96 -3  1024.5  0.1  726  293           
21 25.02.14 110 (В) 8-11{11}  0100 м  туман [диам. гололёда 5 мм]  ?/?  
-0.6 -1 97 -5  1023.1  -1.3  725  293           
00 26.02.14 110 (В) 6{11}  0100 м  туман [диам. гололёда 13 мм]  ?/?  
-0.5 -0.9 97 -4  1021.6  -1.5  724  292           
03 26.02.14 110 (В) 0100 м  туман  ?/?  
-0.1 -0.6 97 -2  1020.9  -0.6  724  292  -0.6      14  мокрый или
старый снег
10-40% 
06 26.02.14 120 (ЮВ) 8-12{12}  0200 м  туман [диам. гололёда 4 мм]  ?/?  
+0.3 -0.2 96 -4  1020.6  -0.2  724  291           
09 26.02.14 110 (В) 8-11  20000 м  {туман}  10/10 150 м 
[St]
+1.2 +0.7 96 -3  1020.5  0.2  724  290           
12 26.02.14 100 (В) 7{12}  10 км  {туман}  10/10 120 м 
[St]
+2 +1.3 95 -1  1020.8  0.4  724  289           
15 26.02.14 100 (В) 6{10}  0200 м  туман  ?/?  
+0.9 +0.4 96 -2  1022.2  1.1  725  291    +2.1       
18 26.02.14 110 (В) 0100 м  туман  ?/?  
+0.7 +0.2 97 -1  1023  0.7  725  291           
21 26.02.14 100 (В) 0200 м  туман  н/о 
+0.2 -0.3 96 -2  1022.9  -0.2  725  292           
00 27.02.14 070 (В) 0100 м  туман  ?/?  
-0.2 -0.7 96 -1  1022.6  -0.3  725  292           
03 27.02.14 080 (В) 0100 м  туман  ?/?  
-0.6 -1 97 -1  1023.3  0.5  726  293  -0.6      11  мокрый или
старый снег
10-40% 
06 27.02.14 360 (С) 0500 м  слаб. снег{туман} [диам. гололёда 1 мм]  ?/?  
-0.1 -0.5 97 +1  1023.7  0.5  726  293           
09 27.02.14 150 (ЮВ) 0500 м  слаб. дождь{снег}  ?/?  
-0.2 -0.7 96 1023.3  -0.4  726  293           
12 27.02.14 060 (СВ) 0300 м  слаб. дождь{снег}  ?/?  
-0.1 -0.6 97 +1  1022.6  -0.6  725  292           
15 27.02.14 340 (С) 10 км  слаб. морось{дождь}  10/10 100 м 
[St]
+1.7 +1.2 97 1022  -0.2  725  290    +2.2     
18 27.02.14 210 (ЮЗ) 1500 м  дымка{дождь, морось}  10/6 150 м средняя 
[St|Ac und]
+0.3 -0.2 96 -1  1022.5  0.1  725  292           
21 27.02.14 250 (З) 10 км  {туман}  10/8 500 м средняя 
[Sc|Ac und]
+2.1 +1.6 96 1022  725  290           
00 28.02.14 250 (З) 20000 м    8/5 300 м средняя 
[Sc|Ac trans]
+2 +1.4 96 +1  1021.4  -0.6  725  290           
03 28.02.14 240 (ЮЗ) 20000 м    10/5 300 м средняя 
[Sc|Ac und]
+2.6 +2 96 +1  1022  0.7  725  289  -0.4    0.4  11  мокрый или
старый снег
10-40% 
06 28.02.14 230 (ЮЗ) 10 км    10/6 600 м средняя 
[Sc|Ac und]
+3.7 +2.9 94 +5  1022.2  0.4  725  288           
09 28.02.14 200 (Ю) 20000 м    10/4 600 м средняя 
[Sc|Ac und]
+6.6 +2.4 75 +8  1021  -0.6  725  285           
12 28.02.14 090 (В) 10 км    9/6 500 м кучево-дожд., средняя 
[Cb cap|Ac trans]
+6.8 +2.8 76 +6  1020.2  -0.7  724  284           
15 28.02.14 110 (В) 10 км    10/4 300 м кучево-дожд., средняя 
[Cb cap|Ac und]
+4.8 +2.4 84 +3  1021  0.3  725  287    +8.1       
18 28.02.14 140 (ЮВ) 10 км  {ливн. осадки}  10/5 400 м кучево-дожд., средняя 
[Cb calv|Ac und]
+4.2 +2.9 91 +3  1021  725  287           
21 28.02.14 150 (ЮВ) 10 км    10/8 360 м средняя 
[St|Ac und]
+3.7 +2.7 93 +5  1021  -0.2  725  288           
00 01.03.14 тихо ()   10 км    10/6 480 м кучево-дожд., средняя 
[Cb calv|Ac und]
+3.3 +2.3 93 +3  1021  725  288           
03 01.03.14 110 (В) 4000 м  дымка  10/4 600 м средняя 
[Sc diur, vesp|Ac und]
+2.3 +1.6 95 +3  1021.9  0.6  725  289  +2.2    0.0     
06 01.03.14 110 (В) 2000 м  дымка{туман}  10/10 120 м 
[St]
+2.9 +2.2 95 +2  1022.5  0.7  725  289  +2         
09 01.03.14 110 (В) 10 км    8/4 200 м средняя 
[St|Ac und]
+5.3 +2.3 81 +4  1021.7  -0.3  725  286           
Время (UTC), дата Ветер
(°,м/с) 
Видим.   Явления Облачность Т
(°С)
Тd
(°С)
f(%) Тe
(°С)
Pmin
(гПа)
dP
(гПа)
Po
(мм)
O2
(г/м3)
Тmin Tmax R s Состояние
почвы